Regional Weather Roundup
Issued by NWS Charleston, SC

Current Version | Previous Version | Graphics & Text | Print | Product List | Glossary On
Versions: 1 2 3 4 5 6 7 8 9 10 11 12 13 14 15 16 17 18 19 20 21 22 23 24 25 26 27 28 29 30 31 32 33 34 35 36 37 38 39 40 41 42 43 44 45 46 47 48 49 50
000
ASUS42 KCHS 281228
RWRCHS

REGIONAL WEATHER ROUNDUP
NATIONAL WEATHER SERVICE CHARLESTON SC
800 AM EDT SAT MAY 28 2016

NOTE: "FAIR" INDICATES FEW OR NO CLOUDS BELOW 12,000 FEET WITH NO
SIGNIFICANT WEATHER AND/OR OBSTRUCTIONS TO VISIBILITY.

NOT ALL STATIONS ARE QUALITY CONTROLLED. USE DATA WITH CAUTION...
ESPECIALLY DEWPOINT OBSERVATIONS.

SCZ027-030-031-034>040-042>050-281300-
...SOUTHEAST SOUTH CAROLINA...

CITY           SKY/WX    TMP DP  RH WIND       PRES   REMARKS
N CHARLESTON   CLOUDY    73  68  84 NE8       30.10R
6HR MIN TEMP:  70; 6HR MAX TEMP:  73;

WATERFRONT PRK   N/A     72  70  93 N9        30.07R
MOUNT PLEASANT FAIR      73  72  94 N6        30.10S
JOHNS ISLAND   FAIR      75  72  88 N8        30.10S
PINOPOLIS        N/A     73  70  88 E10       30.03R
MONCKS CORNER  PTSUNNY   70  64  83 NE6       30.12R HAZE
SUMMERVILLE    FAIR      72  72 100 NE3       30.12R
BEAUFORT MCAS  CLOUDY    73  69  87 N3        30.10R
6HR MIN TEMP:  69; 6HR MAX TEMP:  73; 6HR PCP:  0.01;

BEAUFORT ARPT  CLOUDY    72  68  88 N5        30.10R
HILTON HEAD IS PTSUNNY   72  72 100 N7        30.11R
WALTERBORO     PTSUNNY   77  72  83 E10       30.12R
ALLENDALE      FAIR      72  66  83 VRB3      30.11R

...SOUTHERN MIDLANDS AND PEE DEE...

CITY           SKY/WX    TMP DP  RH WIND       PRES   REMARKS
GEORGETOWN     FAIR      72  68  88 NE7       30.13R
KINGSTREE      CLOUDY    70  64  83 N3        30.13S
ORANGEBURG     CLOUDY    70  64  81 NE7       30.12S
6HR MIN TEMP:  63; 6HR MAX TEMP:  70;

BARNWELL       FAIR      70  70 100 N5        30.14R
AIKEN          CLOUDY    68  61  77 NE5       30.18R
MANNING        FAIR      72  64  78 NE6       30.13S
COLUMBIA       PTSUNNY   68  61  78 S6        30.13R
6HR MIN TEMP:  60; 6HR MAX TEMP:  69;

SUMTER         MOSUNNY   68  62  83 NE6       30.12S
6HR MIN TEMP:  60; 6HR MAX TEMP:  68;

FLORENCE       PTSUNNY   69  63  81 NE5       30.15R
6HR MIN TEMP:  63; 6HR MAX TEMP:  69;

MYRTLE BEACH   PTSUNNY   72  63  73 NE8       30.14R
N MYRTLE BEACH MOSUNNY   71  68  90 NE7       30.12R
6HR MIN TEMP:  67; 6HR MAX TEMP:  71;


$$

GAZ063-065-086>088-099>101-113>116-118-119-134>141-150-281300-
...SOUTHEAST GEORGIA...

CITY           SKY/WX    TMP DP  RH WIND       PRES   REMARKS
SAVANNAH ARPT  PTSUNNY   69  66  90 N6        30.08S
6HR MIN TEMP:  66; 6HR MAX TEMP:  69;

HUNTER AAF     MOSUNNY   72  71  98 VRB2      30.05R
6HR MIN TEMP:  69; 6HR MAX TEMP:  72;

FORT STEWART   PTSUNNY   69  66  91 CALM      30.07R
6HR MIN TEMP:  65; 6HR MAX TEMP:  69;

STATESBORO     CLOUDY    69  67  94 NE3       30.12R
SYLVANIA       CLOUDY    69  66  88 CALM      30.13R
CLAXTON        FAIR      70  68  92 CALM      30.11S

...CSRA...CENTRAL AND FAR SOUTHEAST GEORGIA...

CITY           SKY/WX    TMP DP  RH WIND       PRES   REMARKS
THOMSON        SUNNY     66  65  94 CALM      30.19S
AUGUSTA-BUSH   SUNNY     66  63  90 N3        30.13R
6HR MIN TEMP:  57; 6HR MAX TEMP:  66;

AUGUSTA-DANIEL SUNNY     70  61  73 NE5       30.14R
SWAINSBORO     FAIR      68  63  83 NE6       30.13S
VIDALIA        MOSUNNY   68  64  88 CALM      30.12S
EASTMAN        FAIR      69  69  99 E5        30.14S
HAZLEHURST     FAIR      70  70 100 CALM      30.10S
ALMA           SUNNY     69  67  93 CALM      30.10R
6HR MIN TEMP:  63; 6HR MAX TEMP:  69;

WAYCROSS       PTSUNNY   67  67 100 CALM      30.10S
JESUP          FAIR      64  63  94 N3        30.10R
BAXLEY         FAIR      70  70 100 NE5       30.10S
BRUNSWICK      MOSUNNY   66  64  94 NW5       30.08S
SAINT SIMONS   MOSUNNY   76  71  85 MISG      30.06R
6HR MIN TEMP:  74; 6HR MAX TEMP:  76;


$$

SCZ027-028-034-036>038-045-046-048>050-GAZ119-141-281300-
...LAKE AND SUPPLEMENTAL COASTAL OBSERVATIONS...

STATION/POSITION TIME  TEMP    WIND        PRES    WAVE   SWELL
                       AIR SEA DIR/SP/G            HT/PER HT/PER/DIR
                 (UTC) (F)     (DEG/KT/KT) (MB)    (FT/S) (FT/S/D)
WINYAH BAY       1100   72      40/  8     1018.0S
LAKE MURRAY      1100   65      CALM  /  2 1020.0R
ACE BASIN NERRS  1100   71      10/  1     1019.0R
FORT PULASKI     1200   73 76   30/ 11/ 15 1018.8R
SAPELO ISLAND    1200   75      30/  5     1018.0S

$$

ANZ835-935-AMZ111-154-330-350-352-354-370-450-454-472-281300-
...C-MAN AND BUOY OBSERVATIONS...

STATION/POSITION TIME  TEMP    WIND        PRES    WAVE   SWELL
                       AIR SEA DIR/SP/G            HT/PER HT/PER/DIR
                 (UTC) (F)     (DEG/KT/KT) (MB)    (FT/S) (FT/S/D)
BUOY 41004       1150   77 76   50/ 14/ 16 1017.3F   5/10   3/10
BUOY 41008       1150   76 76   40/ 14/ 16 1017.3R   4/ 7   2/130/ 7
FOLLY BEACH CMAN 1200   73      20/ 11/ 13 1019.2R
CAPERS NEARSHORE 1208   75 76   10/ 12/ 16 1018.8R
FRIPP NEARSHORE  1208   75 77   40/ 14/ 17 1018.1R


STATION/POSITION TIME  TEMP    WIND        PRES    WAVE   SWELL
                       AIR SEA DIR/SP/G            HT/PER HT/PER/DIR
                 (UTC) (F)     (DEG/KT/KT) (MB)    (FT/S) (FT/S/D)
5E ST. MARYS GA  1101      77                N/A     3/ 8
FRYING PAN BUOY  1200   77 76   60/ 16/ 19 1019.0R
BUOY 41025       1150   77 78  110/ 12/ 16 1021.2R   4/ 9   3/130/ 9
CAPE LOOKOUT NC  1200   75      80/  8/  9 1020.7R
BUOY 41002       1150   77 77   90/ 16/ 17 1018.3R   4/ 8   3/110/ 8
BUOY 41010       1120   77 78  320/ 12/ 14 1014.3R
ST AUGUSTINE FL  1200   77 79  360/  9/ 10 1018.3R


$$



USA.gov is the U.S. government's official web portal to all federal, state and local government web resources and services.